EW3804 Weather Reports


time (UTC)temp
F
wind
direction
speed
knots
gust
knots
rain 1hr
in
rain 24hr
in
rain mn
in
humidity
%
barometer
mb
20260903123007 0 0.0 0.0 0.00 0.00 0.00 1005.0
20260903121503 0 0.0 0.0 0.00 0.00 0.00 1004.9
20260903120106 0 0.0 0.0 0.00 0.00 0.00 1004.8
20260903114557 0 0.0 0.0 0.00 0.00 0.00 1004.7
20260903113051 0 0.0 0.0 0.00 0.00 0.00 1004.6
20260903111545 0 0.0 0.0 0.00 0.00 0.00 1004.6
20260903110047 0 0.0 0.0 0.00 0.00 0.00 1004.6
20260903104542 0 0.0 0.0 0.00 0.00 0.00 1004.6
20260903103035 0 0.0 0.0 0.00 0.00 0.00 1004.6
20260903101536 0 0.0 0.0 0.00 0.00 0.00 1004.6
20260903100024 0 0.0 0.0 0.00 0.00 0.00 1004.5
20260903094519 0 0.0 0.0 0.00 0.00 0.00 1004.5
20260903093015 0 0.0 0.0 0.00 0.00 0.00 1004.5
20260903091513 0 0.0 0.0 0.00 0.00 0.00 1004.6
20260903090006 78 146 2.6 6.1 0.00 0.00 0.00 82 1004.7
20260903084505 79 164 2.6 6.1 0.00 0.00 0.00 82 1004.6
20260903083004 79 136 0.9 5.2 0.00 0.00 0.00 82 1004.7
20260903081513 79 170 2.6 5.2 0.00 0.00 0.00 82 1004.6
20260903080005 78 161 3.5 5.2 0.00 0.00 0.00 83 1004.6
20260903074504 78 156 2.6 5.2 0.00 0.00 0.00 83 1004.6
20260903073002 78 134 2.6 6.1 0.00 0.00 0.00 84 1004.7
20260903071609 79 146 1.7 4.3 0.00 0.00 0.00 83 1004.6
20260903070100 79 162 2.6 6.1 0.00 0.00 0.00 83 1004.7
20260903064556 79 148 2.6 6.1 0.00 0.00 0.00 82 1004.9
20260903063114 79 148 1.7 3.5 0.00 0.00 0.00 81 1005.0
20260903061552 79 127 1.7 3.5 0.00 0.00 0.00 80 1005.0
20260903060051 80 134 1.7 4.3 0.00 0.00 0.00 80 1005.1
20260903054550 80 128 1.7 3.5 0.00 0.00 0.00 79 1005.1
20260903053046 80 146 1.7 3.5 0.00 0.00 0.00 79 1005.1
20260903051547 80 150 1.7 4.3 0.00 0.00 0.00 78 1005.1
20260903050105 81 148 1.7 5.2 0.00 0.00 0.00 77 1005.1
20260903044542 81 131 0.9 4.3 0.00 0.00 0.00 76 1005.2
20260903043043 82 110 2.6 5.2 0.00 0.00 0.00 75 1005.2
20260903041541 82 110 3.5 8.7 0.00 0.00 0.00 74 1005.4
20260903040039 82 127 3.5 7.0 0.00 0.00 0.00 74 1005.6
20260903034539 83 100 3.5 8.7 0.00 0.00 0.00 73 1005.5
20260903033039 83 86 5.2 8.7 0.00 0.00 0.00 72 1005.5
20260903031537 83 103 6.1 9.6 0.00 0.00 0.00 71 1005.3
20260903030037 84 88 6.1 8.7 0.00 0.00 0.00 70 1005.1
20260903024536 85 122 3.5 7.0 0.00 0.00 0.00 68 1005.0
20260903023041 85 104 5.2 10.4 0.00 0.00 0.00 68 1004.8
20260903021535 86 102 4.3 8.7 0.00 0.00 0.00 66 1004.6
20260903020036 86 88 4.3 7.8 0.00 0.00 0.00 65 1004.4
20260903014536 87 85 4.3 9.6 0.00 0.00 0.00 62 1004.0
20260903013033 88 68 4.3 7.8 0.00 0.00 0.00 61 1004.0
20260903011548 89 117 1.7 8.7 0.00 0.00 0.00 59 1003.9
20260903010033 90 111 3.5 11.3 0.00 0.00 0.00 58 1003.6
20260903004531 91 75 5.2 13.0 0.00 0.00 0.00 55 1003.4
20260903003030 92 27 5.2 12.2 0.00 0.00 0.00 52 1003.1
20260903001533 95 88 7.8 15.6 0.00 0.00 0.00 46 1002.8
20260903000031 97 37 4.3 8.7 0.00 0.00 0.00 38 1002.6
20260902234537 98 27 4.3 8.7 0.00 0.00 0.00 37 1002.5
20260902233030 99 64 5.2 11.3 0.00 0.00 0.00 37 1002.6
20260902231538 99 69 4.3 9.6 0.00 0.00 0.00 37 1002.5
20260902230032 100 69 4.3 11.3 0.00 0.00 0.00 36 1002.6
20260902224526 100 356 4.3 9.6 0.00 0.00 0.00 34 1002.4
20260902223025 100 36 2.6 10.4 0.00 0.00 0.00 35 1002.4
20260902221523 100 33 4.3 12.2 0.00 0.00 0.00 36 1002.5
20260902220021 99 18 3.5 12.2 0.00 0.00 0.00 36 1002.6
20260902214521 100 37 3.5 7.0 0.00 0.00 0.00 35 1002.7
20260902213019 100 53 6.1 9.6 0.00 0.00 0.00 38 1002.8
20260902211523 99 342 1.7 14.8 0.00 0.00 0.00 38 1003.0
20260902210017 100 51 3.5 7.8 0.00 0.00 0.00 38 1003.1
20260902204514 100 359 4.3 10.4 0.00 0.00 0.00 37 1003.3
20260902203014 100 25 5.2 12.2 0.00 0.00 0.00 39 1003.5
20260902201511 100 18 0.9 9.6 0.00 0.00 0.00 36 1003.6
20260902200008 100 4 1.7 7.0 0.00 0.00 0.00 38 1004.0
20260902194509 99 25 7.0 9.6 0.00 0.00 0.00 39 1004.2
20260902193003 98 304 0.9 7.8 0.00 0.00 0.00 42 1004.4
20260902191559 98 94 2.6 7.0 0.00 0.00 0.00 42 1004.7
20260902190058 97 39 5.2 8.7 0.00 0.00 0.00 43 1005.0
20260902184559 98 28 2.6 13.9 0.00 0.00 0.00 43 1005.2
20260902183053 97 328 4.3 9.6 0.00 0.00 0.00 44 1005.4
20260902181549 97 316 3.5 8.7 0.00 0.00 0.00 45 1005.7
20260902174542 96 305 3.5 8.7 0.00 0.00 0.00 47 1006.3
20260902173038 94 29 0.0 9.6 0.00 0.00 0.00 50 1006.5
20260902171537 94 314 2.6 7.0 0.00 0.00 0.00 50 1006.9
20260902170038 93 281 3.5 6.1 0.00 0.00 0.00 52 1007.1
20260902164533 93 321 2.6 7.0 0.00 0.00 0.00 52 1007.3
20260902163031 93 313 0.0 5.2 0.00 0.00 0.00 54 1007.5
20260902161541 92 360 0.0 3.5 0.00 0.00 0.00 55 1007.5
20260902160026 89 121 0.0 4.3 0.00 0.00 0.00 59 1007.6
20260902154530 89 320 2.6 6.1 0.00 0.00 0.00 60 1007.6
20260902153024 89 349 0.9 3.5 0.00 0.00 0.00 60 1007.6
20260902151521 88 117 0.0 2.6 0.00 0.00 0.00 63 1007.6
20260902150019 87 103 1.7 4.3 0.00 0.00 0.00 64 1007.7
20260902144528 86 106 0.9 4.3 0.00 0.00 0.00 66 1007.8
20260902143016 84 46 0.9 4.3 0.00 0.00 0.00 69 1007.8
20260902141519 83 110 1.7 3.5 0.00 0.00 0.00 70 1007.8
20260902140015 83 37 0.0 0.9 0.00 0.00 0.00 71 1007.7
20260902134518 81 37 0.0 0.0 0.00 0.00 0.00 75 1007.7
20260902133004 79 37 0.0 0.0 0.00 0.00 0.00 77 1007.6
20260902131509 78 37 0.0 0.9 0.00 0.00 0.00 78 1007.6
20260902130002 0 0.0 0.0 0.00 0.00 0.00 1007.3
20260902124603 0 0.0 0.0 0.00 0.00 0.00 1007.3